Zurück zum Katalog

SCOUT G-1 DEB

AktivPO
NORAD 15950·DEBRIS·🇺🇸 United States

Gestartet Aug 3, 1985 von Vandenberg Space Force Base

Loading…

Nächste Überflüge (nächste 24 Stunden)

TLE

AktuellSource: Space-Track

Epoche: Sep 14, 2026, 12:42 UTC

1 15950U 85066D   26257.52951509  .00003943  00000-0  18431-2 0  9991
2 15950  89.8373 292.2880 0074830 276.2455  83.0215 14.18729009 55723

Verfolge SCOUT G-1 DEB in Echtzeit mit AllMySat

Download on the App Store